Regional Weather Roundup
Issued by NWS Cleveland, OH

Home | Current Version | Previous Version | Text Only | Print | Product List | Glossary Off
Versions: 1 2 3 4 5 6 7 8 9 10 11 12 13 14 15 16 17 18 19 20 21 22 23 24 25 26 27 28 29 30 31 32 33 34 35 36 37 38 39 40 41 42 43 44 45 46 47 48 49 50

000
ASUS41 KCLE 270510
RWRCLE
OHIO REGIONAL WEATHER ROUNDUP
NATIONAL WEATHER SERVICE CLEVELAND, OH
100 AM EDT WED MAY 27 2015

NOTE: "FAIR" INDICATES FEW OR NO CLOUDS BELOW 12,000 FEET WITH NO
SIGNIFICANT WEATHER AND/OR OBSTRUCTIONS TO VISIBILITY.

OHZ001>008-015>018-024>027-034-035-043-044-270600-
   NORTHWEST OHIO

CITY           SKY/WX    TMP DP  RH WIND       PRES   REMARKS
DEFIANCE       CLOUDY    71  64  78 SW8       29.94F
FINDLAY        CLOUDY    70  66  87 S14       29.97S
TOLEDO EXPRESS CLOUDY    69  65  86 SW10G17   29.93S
TOLEDO EXEC    CLOUDY    71  64  78 SW12      29.94F
LIMA           CLOUDY    69  65  86 SW12      29.99R
$$

OHZ009>014-019>023-028>033-038-089-270600-
   NORTHEAST OHIO

CITY           SKY/WX    TMP DP  RH WIND       PRES   REMARKS
CLE-HOPKINS    CLOUDY    69  65  86 S12       30.01F
CLE-LAKEFRONT  RAIN      70  65  84 S14       29.98F
CUY CO. ARPT   NOT AVBL
LORAIN-ELYRIA  CLOUDY    68  66  93 S13       30.00S
ASHTABULA      RAIN      68  66  93 SW10      30.02F
AKRON-CANTON   CLOUDY    67  64  90 S12       30.04F
WOOSTER        LGT RAIN  67  65  93 SW10      30.04R
MANSFIELD      CLOUDY    67  66  97 S13       30.03R
YOUNGSTOWN     LGT RAIN  67  66  97 S6        30.05F
$$

OHZ042-051>053-060>062-070>072-077>081-270600-
  SOUTHWEST OHIO

CITY           SKY/WX    TMP DP  RH WIND       PRES   REMARKS
CINC-COVINGTON CLOUDY    67  65  93 S8        30.06R
CINC-LUNKEN    MOCLDY    66  65  96 S6        30.06R
HAMILTON       CLOUDY    69  66  90 VRB5      30.05R
DAYTON         CLOUDY    69  66  90 S12       30.04R
WRIGHT-PAT AFB CLOUDY    69  67  94 S8        30.04R
DAYTON GENERAL CLOUDY    67  65  93 S9        30.04R
WILMINGTON     PTCLDY    66  63  90 S10       30.06R
$$

OHZ036-037-039>041-045>050-054>059-063>069-073>076-082>088-270600-
  CENTRAL AND SOUTHEAST OHIO

CITY           SKY/WX    TMP DP  RH WIND       PRES   REMARKS
COLUMBUS       CLOUDY    67  66  97 S7        30.05R
OSU AIRPORT    CLOUDY    68  65  90 S7        30.05R
BOLTON FIELD   NOT AVBL
RICKENBACK AFB MOCLDY    66  65  96 S8        30.05S
NEWARK         CLOUDY    68  65  90 S9        30.05R
MARION         MOCLDY    68  66  93 S14       30.02R
LANCASTER      MOCLDY    69  65  86 S8        30.07R
ZANESVILLE     CLOUDY    66  64  93 S6        30.08R
NEW PHILLY     NOT AVBL
$$



USA.gov is the U.S. government's official web portal to all federal, state and local government web resources and services.